Time,TemperatureF,DewpointF,PressureIn,WindDirection,WindDirectionDegrees,WindSpeedMPH,WindSpeedGustMPH,Humidity,HourlyPrecipIn,Conditions,Clouds,dailyrainin,SoftwareType,DateUTC
2013-04-05 00:00:00,44.0,-99.9,-100.00,NNE,19,7.0,11.0,-999,0.00,,,0.00,,2013-04-05 05:00:00,
2013-04-05 00:42:00,44.0,-99.9,-100.00,NNE,19,7.0,11.0,-999,0.00,,,0.00,,2013-04-05 05:42:00,
2013-04-05 00:53:00,44.0,-99.9,-100.00,NNE,19,7.0,11.0,-999,0.00,,,0.00,,2013-04-05 05:53:00,
2013-04-05 02:00:00,41.0,-99.9,-100.00,NNE,22,9.0,11.0,-999,0.00,,,0.00,,2013-04-05 07:00:00,
2013-04-05 02:42:00,41.0,-99.9,-100.00,NNE,22,9.0,11.0,-999,0.00,,,0.00,,2013-04-05 07:42:00,
2013-04-05 02:53:00,41.0,-99.9,-100.00,NNE,22,9.0,11.0,-999,0.00,,,0.00,,2013-04-05 07:53:00,
2013-04-05 03:00:00,40.0,-99.9,-100.00,NNE,25,8.0,13.0,-999,0.00,,,0.00,,2013-04-05 08:00:00,
2013-04-05 03:43:00,40.0,-99.9,-100.00,NNE,25,8.0,13.0,-999,0.00,,,0.00,,2013-04-05 08:43:00,
2013-04-05 03:52:00,40.0,-99.9,-100.00,NNE,25,8.0,13.0,-999,0.00,,,0.00,,2013-04-05 08:52:00,
2013-04-05 04:00:00,39.0,-99.9,-100.00,NNE,15,5.0,17.0,-999,0.00,,,0.00,,2013-04-05 09:00:00,
2013-04-05 04:43:00,39.0,-99.9,-100.00,NNE,15,5.0,17.0,-999,0.00,,,0.00,,2013-04-05 09:43:00,
2013-04-05 04:53:00,39.0,-99.9,-100.00,NNE,15,5.0,17.0,-999,0.00,,,0.00,,2013-04-05 09:53:00,
2013-04-05 05:00:00,37.0,-99.9,-100.00,NNE,12,4.0,10.0,-999,0.00,,,0.00,,2013-04-05 10:00:00,
2013-04-05 05:43:00,37.0,-99.9,-100.00,NNE,12,4.0,10.0,-999,0.00,,,0.00,,2013-04-05 10:43:00,
2013-04-05 05:54:00,37.0,-99.9,-100.00,NNE,12,4.0,10.0,-999,0.00,,,0.00,,2013-04-05 10:54:00,
2013-04-05 06:00:00,35.0,-99.9,-100.00,North,356,4.0,14.0,-999,0.00,,,0.00,,2013-04-05 11:00:00,
2013-04-05 06:42:00,35.0,-99.9,-100.00,North,356,4.0,14.0,-999,0.00,,,0.00,,2013-04-05 11:42:00,
2013-04-05 06:52:00,35.0,-99.9,-100.00,North,356,4.0,14.0,-999,0.00,,,0.00,,2013-04-05 11:52:00,
2013-04-05 08:00:00,36.0,-99.9,-100.00,NNE,21,4.0,8.0,-999,0.00,,,0.00,,2013-04-05 13:00:00,
2013-04-05 08:43:00,36.0,-99.9,-100.00,NNE,21,4.0,8.0,-999,0.00,,,0.00,,2013-04-05 13:43:00,
2013-04-05 08:53:00,36.0,-99.9,-100.00,NNE,21,4.0,8.0,-999,0.00,,,0.00,,2013-04-05 13:53:00,
2013-04-05 09:00:00,40.0,-99.9,-100.00,East,85,4.0,9.0,-999,0.00,,,0.00,,2013-04-05 14:00:00,
2013-04-05 09:43:00,40.0,-99.9,-100.00,East,85,4.0,9.0,-999,0.00,,,0.00,,2013-04-05 14:43:00,
2013-04-05 09:55:00,40.0,-99.9,-100.00,East,85,4.0,9.0,-999,0.00,,,0.00,,2013-04-05 14:55:00,
2013-04-05 10:00:00,45.0,-99.9,-100.00,ESE,113,6.0,15.0,-999,0.00,,,0.00,,2013-04-05 15:00:00,
2013-04-05 10:43:00,45.0,-99.9,-100.00,ESE,113,6.0,15.0,-999,0.00,,,0.00,,2013-04-05 15:43:00,
2013-04-05 10:55:00,45.0,-99.9,-100.00,ESE,113,6.0,15.0,-999,0.00,,,0.00,,2013-04-05 15:55:00,
2013-04-05 11:00:00,47.0,-99.9,-100.00,SE,131,7.0,12.0,-999,0.00,,,0.00,,2013-04-05 16:00:00,
2013-04-05 11:43:00,47.0,-99.9,-100.00,SE,131,7.0,12.0,-999,0.00,,,0.00,,2013-04-05 16:43:00,
2013-04-05 11:53:00,47.0,-99.9,-100.00,SE,131,7.0,12.0,-999,0.00,,,0.00,,2013-04-05 16:53:00,
2013-04-05 12:00:00,51.0,-99.9,-100.00,SE,142,8.0,17.0,-999,0.00,,,0.00,,2013-04-05 17:00:00,
2013-04-05 12:46:00,51.0,-99.9,-100.00,SE,142,8.0,17.0,-999,0.00,,,0.00,,2013-04-05 17:46:00,
2013-04-05 12:53:00,51.0,-99.9,-100.00,SE,142,8.0,17.0,-999,0.00,,,0.00,,2013-04-05 17:53:00,
2013-04-05 13:00:00,54.0,-99.9,-100.00,SSE,152,7.0,15.0,-999,0.00,,,0.00,,2013-04-05 18:00:00,
2013-04-05 13:44:00,54.0,-99.9,-100.00,SSE,152,7.0,15.0,-999,0.00,,,0.00,,2013-04-05 18:44:00,
2013-04-05 13:53:00,54.0,-99.9,-100.00,SSE,152,7.0,15.0,-999,0.00,,,0.00,,2013-04-05 18:53:00,
2013-04-05 14:00:00,55.0,-99.9,-100.00,SE,145,8.0,13.0,-999,0.00,,,0.00,,2013-04-05 19:00:00,
2013-04-05 14:43:00,55.0,-99.9,-100.00,SE,145,8.0,13.0,-999,0.00,,,0.00,,2013-04-05 19:43:00,
2013-04-05 14:53:00,55.0,-99.9,-100.00,SE,145,8.0,13.0,-999,0.00,,,0.00,,2013-04-05 19:53:00,
2013-04-05 15:00:00,57.0,-99.9,-100.00,SSE,160,9.0,16.0,-999,0.00,,,0.00,,2013-04-05 20:00:00,
2013-04-05 15:43:00,57.0,-99.9,-100.00,SSE,160,9.0,16.0,-999,0.00,,,0.00,,2013-04-05 20:43:00,
2013-04-05 15:53:00,57.0,-99.9,-100.00,SSE,160,9.0,16.0,-999,0.00,,,0.00,,2013-04-05 20:53:00,
2013-04-05 16:00:00,59.0,-99.9,-100.00,SSE,152,12.0,17.0,-999,0.00,,,0.00,,2013-04-05 21:00:00,
2013-04-05 16:45:00,59.0,-99.9,-100.00,SSE,152,12.0,17.0,-999,0.00,,,0.00,,2013-04-05 21:45:00,
2013-04-05 16:56:00,59.0,-99.9,-100.00,SSE,152,12.0,17.0,-999,0.00,,,0.00,,2013-04-05 21:56:00,
2013-04-05 17:00:00,59.0,-99.9,-100.00,SSE,156,13.0,22.0,-999,0.00,,,0.00,,2013-04-05 22:00:00,
2013-04-05 17:44:00,59.0,-99.9,-100.00,SSE,156,13.0,22.0,-999,0.00,,,0.00,,2013-04-05 22:44:00,
2013-04-05 17:53:00,59.0,-99.9,-100.00,SSE,156,13.0,22.0,-999,0.00,,,0.00,,2013-04-05 22:53:00,
2013-04-05 18:00:00,60.0,-99.9,-100.00,SSE,154,13.0,20.0,-999,0.00,,,0.00,,2013-04-05 23:00:00,
2013-04-05 18:43:00,60.0,-99.9,-100.00,SSE,154,13.0,20.0,-999,0.00,,,0.00,,2013-04-05 23:43:00,
2013-04-05 18:53:00,60.0,-99.9,-100.00,SSE,154,13.0,20.0,-999,0.00,,,0.00,,2013-04-05 23:53:00,
2013-04-05 20:00:00,57.0,-99.9,-100.00,SSE,152,12.0,17.0,-999,0.00,,,0.00,,2013-04-06 01:00:00,
2013-04-05 20:44:00,57.0,-99.9,-100.00,SSE,152,12.0,17.0,-999,0.00,,,0.00,,2013-04-06 01:44:00,
2013-04-05 20:53:00,57.0,-99.9,-100.00,SSE,152,12.0,17.0,-999,0.00,,,0.00,,2013-04-06 01:53:00,
2013-04-05 21:00:00,56.0,-99.9,-100.00,SSE,153,12.0,16.0,-999,0.00,,,0.00,,2013-04-06 02:00:00,
2013-04-05 21:43:00,56.0,-99.9,-100.00,SSE,153,12.0,16.0,-999,0.00,,,0.00,,2013-04-06 02:43:00,
2013-04-05 21:53:00,56.0,-99.9,-100.00,SSE,153,12.0,16.0,-999,0.00,,,0.00,,2013-04-06 02:53:00,
2013-04-05 22:00:00,55.0,-99.9,-100.00,SSE,148,10.0,14.0,-999,0.00,,,0.00,,2013-04-06 03:00:00,
2013-04-05 22:44:00,55.0,-99.9,-100.00,SSE,148,10.0,14.0,-999,0.00,,,0.00,,2013-04-06 03:44:00,
2013-04-05 22:55:00,55.0,-99.9,-100.00,SSE,148,10.0,14.0,-999,0.00,,,0.00,,2013-04-06 03:55:00,
2013-04-05 23:00:00,55.0,-99.9,-100.00,SSE,153,12.0,20.0,-999,0.00,,,0.00,,2013-04-06 04:00:00,
2013-04-05 23:43:00,55.0,-99.9,-100.00,SSE,153,12.0,20.0,-999,0.00,,,0.00,,2013-04-06 04:43:00,
2013-04-05 23:53:00,55.0,-99.9,-100.00,SSE,153,12.0,20.0,-999,0.00,,,0.00,,2013-04-06 04:53:00,